Other Surface Observations
Issued by NWS

Current Version | Previous Version | Text Only | Print | Product List | Glossary On
Versions: 1 2 3 4 5 6 7 8 9 10 11 12 13 14 15 16 17 18 19 20 21 22 23 24 25 26 27 28 29 30 31 32 33 34 35 36 37 38 39 40 41 42 43 44 45 46 47 48 49 50
000
SXUS52 KTAE 012218
OSOTAE
OSOTAE
North Florida/South Alabama/Southwest Georgia Weather Roundup
National Weather Service Tallahassee Florida
600 PM EDT WED OCT 01 2014

Note: "fair" indicates few or no clouds below 12,000 feet with no
significant weather and/or obstructions to visibility.

!FLZ017-115-028-034-025-012300
...North Florida...

CITY           SKY/WX    TMP DP  RH WIND       PRES   REMARKS
TALLAHASSEE    MOSUNNY   83  67  58 E7        29.94R
APALACHICOLA   SUNNY     83  69  62 SE7       29.93S
PERRY          SUNNY     68  57  68 N6        29.95R
CROSS CITY       N/A     85  71  63 N7        29.93R HX  90
JACKSONVILLE   PTSUNNY   78  71  79 NE7       29.95R
$$

!FLZ112-006-005-002-011-012300
...Florida Panhandle...

CITY           SKY/WX    TMP DP  RH WIND       PRES   REMARKS
MARIANNA       MOSUNNY   82  69  64 NE3       29.93S
BONIFAY        FAIR      81  70  69 CALM      29.94S
PANAMA CITY NW PTSUNNY   84  69  60 S7        29.92R
TYNDALL AFB    MOSUNNY   81  76  84 S8        29.94R
TYND DRONE APT FAIR      80  72  75 MISG      29.92R
DE FUNIAK SPR  FAIR      81  66  60 NE3       29.94R
EGLIN AFB      PTSUNNY   80  70  70 S7        29.93R
DESTIN         PTSUNNY   82  69  64 VRB3      29.93R
HURLBURT       CLOUDY    81  66  60 S8        29.92S
CRESTVIEW      PTSUNNY   84  66  54 E3        29.94S
PENSACOLA      PTSUNNY   80  70  71 S7        29.93R
$$

!ALZ063-066-012300
...South Alabama...

CITY           SKY/WX    TMP DP  RH WIND       PRES   REMARKS
DOTHAN         CLOUDY    83  63  50 CALM      29.98R
OZARK CAIRNS   PTSUNNY   83  64  51 E2        29.94S
FT RUCKER HELI PTSUNNY   84  63  49 NE5       29.93R
RUCKER HELI 3  FAIR      82  63  52 NE6       29.97R
RUCKER HELI 2  FAIR      83  62  49 N5        29.94R
FLORALA APT    PTSUNNY   83  64  52 CALM      29.95S
ANDALUSIA      PTSUNNY   87  62  43 SE3       29.93S
TROY           MOSUNNY   82  62  50 S3        29.95S
EUFALA         FAIR      84  61  45 CALM      29.94S
MOBILE         PTSUNNY   80  72  76 S8        29.94R
$$

!GAZ120>161-012300
...Southwest and South Central Georgia...

CITY           SKY/WX    TMP DP  RH WIND       PRES   REMARKS
THOMASVILLE    FAIR      82  64  54 E5        29.97R
BAINBRIDGE     MOSUNNY   84  70  61 E6        29.95R
MOODY AFB      PTSUNNY   80  68  65 NE5       29.96S
VALDOSTA       MOSUNNY   81  68  64 VRB3      29.96R
MOULTRIE       MOSUNNY   81  70  69 SE3       29.97R
BLAKELY        SUNNY     82  68  61 SE3         N/A
ALBANY         SUNNY     82  66  58 SW3       29.97S
TIFTON         FAIR      80  65  59 SE6       29.96S
FITZGERALD     FAIR      82  64  53 CALM      29.98S
CORDELE        FAIR      83  65  54 W3        29.97R
AMERICUS       FAIR      81  64  57 SE3       29.98S
HOMERVILLE     CLOUDY    81  72  74 CALM      29.97R
$$

!GMZ750-755-770-775-012300
...Coastal and Buoy Obs...

STATION/POSITION TIME  TEMP    WIND        PRES    VSBY  WAVE
                       AIR SEA DIR/SP/G                  HT/PER
                 (UTC) (F)     (DEG/KT/KT) (MB)    (MI)  (FT/S)
KEATON BEACH     2200   81      10/  4/  6 1013.8R
CEDAR KEY        2200   82     300/  6/  9 1014.0R
C TOWER          2200   79     110/  7/  8 1013.7R
APALACHICOLA BUO 2200   81 84   50/  8/ 10 1013.3S         1/ 4
PANAMA CITY BUOY 2131   81 85   70/  4/  6 1013.3R         2/ 5
MOBILE BUOY      2149   81 83  130/  8/ 10 1013.2F         1/ 5
ORANGE BCH AL BU 2200   79 82  110/ 10/ 12 1013.4S         2/ 3
$$



USA.gov is the U.S. government's official web portal to all federal, state and local government web resources and services.